Regional Weather Roundup
Issued by NWS

Home | Current Version | Previous Version | Text Only | Print | Product List | Glossary On
Versions: 1 2 3 4 5 6 7 8 9 10 11 12 13 14 15 16 17 18 19 20 21 22 23 24 25 26 27 28 29 30 31 32 33 34 35 36 37 38 39 40 41 42 43 44 45 46 47 48 49 50
000
ASUS43 KTOP 241008
RWRKS

WEATHER ROUNDUP FOR KANSAS
NATIONAL WEATHER SERVICE GOODLAND KS
500 AM CDT WED AUG 24 2016

NOTE:  "FAIR" INDICATES FEW OR NO CLOUDS BELOW 12,000 FEET WITH NO
SIGNIFICANT WEATHER AND/OR OBSTRUCTIONS TO VISIBILITY.

KSZ001>006-013>018-027>032-041>047-241100-
NORTHWEST KANSAS

CITY           SKY/WX    TMP DP  RH WIND       PRES   REMARKS
GOODLAND       LGT RAIN  65  48  54 N16       30.04F
HAYS           CLOUDY    72  54  53 NE3       29.94S
HILL CITY      CLOUDY    65  56  72 N7        29.96F
RUSSELL        CLOUDY    71  66  84 W9        29.91S
$$

KSZ061>065-074>080-084>089-241100-
SOUTHWEST KANSAS

CITY           SKY/WX    TMP DP  RH WIND       PRES   REMARKS
DODGE CITY     CLOUDY    74  61  63 SW8       29.96R
ELKHART          N/A     71  48  43 W9          N/A
GARDEN CITY    CLOUDY    68  61  78 CALM      29.95S
GREAT BEND     CLOUDY    72  61  68 CALM      29.94S
LIBERAL        CLOUDY    72  59  64 S16G22    30.00R
PRATT          CLOUDY    73  61  64 SW14      29.93F
$$

KSZ066>073-081>083-090>101-241100-
SOUTHEAST KANSAS

CITY           SKY/WX    TMP DP  RH WIND       PRES   REMARKS
CHANUTE        CLOUDY    77  71  82 S9        29.98S
COFFEYVILLE    MOCLDY    79  70  74 S8        29.99S
HUTCHINSON     MOCLDY    75  64  68 S3        29.93S
MEDICINE LODGE   N/A     76  63  64 S9        29.93S
NEWTON         MOCLDY    77  67  71 S14       29.95S
PARSONS        CLOUDY    78  70  76 S6        30.00S
WICHITA INTL   MOCLDY    76  68  76 S10       29.93F
WICHITA JABRA  PTCLDY    76  68  76 S7        29.94S
WICHITA MCCONL PTCLDY    75  67  76 SW10      29.94F
WINFIELD       PTCLDY    78  68  71 S8        29.97S
$$

KSZ007>012-019>026-033>040-048>060-102>105-241100-
NORTHEAST KANSAS

CITY           SKY/WX    TMP DP  RH WIND       PRES   REMARKS
CONCORDIA      MOCLDY    71  67  87 E3        29.89S
EMPORIA        PTCLDY    74  70  87 S10       29.94S
LAWRENCE       CLOUDY    70  67  90 NE6G18    30.00R
MANHATTAN      CLOUDY    71  67  87 NE9       29.95R
MARYSVILLE     MOCLDY    66  63  88 SE9       29.92F
OLATHE IND     CLOUDY    72  70  93 N14       30.01R
OLATHE EXE     CLOUDY    73  70  90 N12       30.00R
SALINA         MOCLDY    74  63  68 S5        29.93S
TOPEKA BILLARD CLOUDY    70  65  84 NE12      29.99R
TOPEKA FORBES  CLOUDY    72  66  81 NE12      29.98S
$$




USA.gov is the U.S. government's official web portal to all federal, state and local government web resources and services.